Location: Laterina
(43.5167°N, 11.7167°E)
Time: 07:49:03
(UTC+00:00)

Cosmos 2026 Rocket - Pass Details

Date: 18 January 2021
Orbit: 940 x 1000 km, 82.9° (Epoch: 08 March)

Event Time Altitude Azimuth Distance (km) Brightness Sun altitude
Rises 05:13:05 0° 356° (N) 3,699 6.9 -15.8°
Reaches altitude 10° 05:15:43 10° 3° (N) 2,755 6.2 -15.3°
Maximum altitude 05:21:49 48° 77° (ENE) 1,275 5.0 -14.3°
Drops below altitude 10° 05:27:56 10° 151° (SSE) 2,762 7.0 -13.2°
Sets 05:30:34 0° 157° (SSE) 3,709 7.7 -12.7°
